CW8926 Weather Reports


time (UTC)temp
C
wind
direction
speed
KPH
gust
KPH
rain 1hr
cm
rain 24hr
cm
rain mn
cm
humidity
%
barometer
mb
20200803152236 20 59 1.6 8.0 0.00 0.00 0.00 62 1021.2
20200803151615 20 249 0.0 8.0 0.00 0.00 0.00 62 1021.2
20200803151014 18 109 1.6 8.0 0.00 0.00 0.00 63 1021.3
20200803150415 18 109 1.6 8.0 0.00 0.00 0.00 62 1021.3
20200803145809 18 117 3.2 8.0 0.00 0.00 0.00 60 1021.3
20200803145208 18 117 1.6 8.0 0.00 0.00 0.00 61 1021.3
20200803144619 18 87 1.6 8.0 0.00 0.00 0.00 60 1021.3
20200803144002 18 89 3.2 8.0 0.00 0.00 0.00 60 1021.9
20200803143343 18 86 1.6 8.0 0.00 0.00 0.00 55 1021.9
20200803142735 18 83 1.6 6.4 0.00 0.00 0.00 53 1021.9
20200803142131 18 88 1.6 8.0 0.00 0.00 0.00 53 1021.9
20200803141528 18 106 1.6 8.0 0.00 0.00 0.00 53 1021.9
20200803140926 17 100 0.0 8.0 0.00 0.00 0.00 54 1021.3
20200803140309 17 141 0.0 3.2 0.00 0.00 0.00 55 1021.3
20200803135715 17 142 1.6 8.0 0.00 0.00 0.00 55 1021.3
20200803135052 17 127 0.0 4.8 0.00 0.00 0.00 54 1021.3
20200803134439 17 128 0.0 1.6 0.00 0.00 0.00 54 1021.3
20200803133834 16 128 0.0 1.6 0.00 0.00 0.00 56 1021.2
20200803133210 16 126 0.0 1.6 0.00 0.00 0.00 55 1021.2
20200803132611 16 124 0.0 0.0 0.00 0.00 0.00 58 1021.5
20200803132000 16 124 0.0 0.0 0.00 0.00 0.00 58 1021.5
20200803131407 16 124 0.0 0.0 0.00 0.00 0.00 57 1021.1
20200803130751 16 124 0.0 0.0 0.00 0.00 0.00 57 1021.1
20200803130138 15 124 0.0 0.0 0.00 0.00 0.00 57 1021.1
20200803125545 15 124 0.0 0.0 0.00 0.00 0.00 59 1021.5
20200803124952 15 124 0.0 0.0 0.00 0.00 0.00 61 1021.5
20200803124329 15 124 0.0 0.0 0.00 0.00 0.00 61 1021.7
20200803123740 15 124 0.0 0.0 0.00 0.00 0.00 58 1021.7
20200803123127 15 124 0.0 0.0 0.00 0.00 0.00 59 1021.7
20200803122533 15 124 0.0 1.6 0.00 0.00 0.00 57 1021.5
20200803121933 15 124 0.0 0.0 0.00 0.00 0.00 58 1021.5
20200803121325 15 124 0.0 0.0 0.00 0.00 0.00 60 1021.5
20200803120733 15 124 0.0 0.0 0.00 0.00 0.00 61 1021.5
20200803120123 14 124 0.0 4.8 0.00 0.00 0.00 63 1021.5
20200803115532 14 124 0.0 0.0 0.00 0.00 0.00 63 1021.5
20200803114932 14 124 0.0 0.0 0.00 0.00 0.00 64 1021.5
20200803114317 14 124 0.0 0.0 0.00 0.00 0.00 63 1021.4
20200803113720 14 124 0.0 0.0 0.00 0.00 0.00 62 1021.4
20200803113113 15 124 0.0 0.0 0.00 0.00 0.00 63 1021.4
20200803112453 15 124 1.6 4.8 0.00 0.00 0.00 63 1021.0
20200803111843 15 119 0.0 1.6 0.00 0.00 0.00 63 1021.0
20200803111225 15 119 0.0 1.6 0.00 0.00 0.00 60 1020.3
20200803110610 15 119 0.0 3.2 0.00 0.00 0.00 61 1020.3
20200803110003 15 119 0.0 4.8 0.00 0.00 0.00 60 1020.3
20200803105346 15 119 1.6 6.4 0.00 0.00 0.00 57 1020.1
20200803104748 16 119 1.6 6.4 0.00 0.00 0.00 54 1020.1
20200803104154 16 119 3.2 6.4 0.00 0.00 0.00 55 1020.0
20200803103551 16 84 1.6 6.4 0.00 0.00 0.00 56 1020.0
20200803102953 16 13 0.0 1.6 0.00 0.00 0.00 58 1020.0
20200803102356 16 13 1.6 6.4 0.00 0.00 0.00 58 1020.3
20200803101747 16 284 0.0 4.8 0.00 0.00 0.00 56 1020.3
20200803101154 16 284 0.0 1.6 0.00 0.00 0.00 54 1020.6
20200803100549 16 284 0.0 0.0 0.00 0.00 0.00 53 1020.6
20200803095936 16 284 0.0 4.8 0.00 0.00 0.00 53 1020.6
20200803095342 16 286 0.0 0.0 0.00 0.00 0.00 55 1020.2
20200803094725 17 286 0.0 0.0 0.00 0.00 0.00 54 1020.2
20200803094122 17 286 0.0 4.8 0.00 0.00 0.00 53 1020.4
20200803093502 16 293 0.0 4.8 0.00 0.00 0.00 50 1020.4
20200803092908 17 293 0.0 4.8 0.00 0.00 0.00 51 1020.3
20200803092249 17 293 0.0 4.8 0.00 0.00 0.00 54 1020.3
20200803091634 17 293 0.0 0.0 0.00 0.00 0.00 57 1020.3
20200803091037 17 293 1.6 0.0 0.00 0.00 0.00 55 1020.7
20200803090435 17 293 3.2 6.4 0.00 0.00 0.00 53 1020.7
20200803085815 18 293 3.2 6.4 0.00 0.00 0.00 50 1020.7
20200803085225 18 293 3.2 8.0 0.00 0.00 0.00 50 1020.7
20200803084606 18 306 3.2 8.0 0.00 0.00 0.00 51 1020.7
20200803083945 18 321 1.6 8.0 0.00 0.00 0.00 52 1020.4
20200803083343 18 326 4.8 14.5 0.00 0.00 0.00 51 1020.4
20200803082750 18 340 4.8 14.5 0.00 0.00 0.00 52 1020.9
20200803082133 18 346 4.8 14.5 0.00 0.00 0.00 49 1020.9
20200803081513 18 325 3.2 14.5 0.00 0.00 0.00 50 1020.9
20200803080911 17 297 1.6 6.4 0.00 0.00 0.00 48 1020.4
20200803080259 17 297 1.6 6.4 0.00 0.00 0.00 49 1020.4
20200803075652 17 248 3.2 6.4 0.00 0.00 0.00 50 1020.5
20200803075055 17 248 3.2 6.4 0.00 0.00 0.00 50 1020.5
20200803074446 17 248 0.0 6.4 0.00 0.00 0.00 50 1020.5
20200803073852 17 148 0.0 0.0 0.00 0.00 0.00 49 1020.7
20200803073249 17 148 0.0 0.0 0.00 0.00 0.00 49 1020.7
20200803072638 17 148 0.0 0.0 0.00 0.00 0.00 50 1020.7
20200803072019 17 148 0.0 0.0 0.00 0.00 0.00 50 1020.7
20200803071407 18 148 0.0 0.0 0.00 0.00 0.00 47 1021.5
20200803070748 18 148 0.0 1.6 0.00 0.00 0.00 46 1021.5
20200803070135 18 149 0.0 0.0 0.00 0.00 0.00 45 1021.5
20200803065513 18 107 1.6 8.0 0.00 0.00 0.00 44 1021.1
20200803064918 19 51 3.2 8.0 0.00 0.00 0.00 43 1021.1
20200803064323 20 28 0.0 6.4 0.00 0.00 0.00 40 1020.9
20200803063731 20 286 1.6 4.8 0.00 0.00 0.00 40 1020.9
20200803063121 20 286 1.6 6.4 0.00 0.00 0.00 39 1020.9
20200803062517 20 287 1.6 6.4 0.00 0.00 0.00 39 1021.2
20200803061856 20 287 3.2 6.4 0.00 0.00 0.00 41 1021.2
20200803061255 19 287 3.2 11.3 0.00 0.00 0.00 43 1021.7
20200803060654 20 239 3.2 11.3 0.00 0.00 0.00 42 1021.7
20200803060033 20 187 4.8 11.3 0.00 0.00 0.00 40 1021.7
20200803055419 20 267 3.2 11.3 0.00 0.00 0.00 39 1021.7
20200803054819 20 126 1.6 6.4 0.00 0.00 0.00 39 1021.7
20200803054220 21 296 4.8 14.5 0.00 0.00 0.00 38 1021.8
20200803053604 21 265 9.7 14.5 0.00 0.00 0.00 37 1021.8
20200803052948 21 308 6.4 14.5 0.00 0.00 0.00 37 1021.8
20200803052341 21 322 6.4 11.3 0.00 0.00 0.00 37 1021.9
20200803051751 21 299 8.0 11.3 0.00 0.00 0.00 37 1021.9
20200803051138 21 286 8.0 12.9 0.00 0.00 0.00 37 1021.8
20200803050536 21 284 8.0 14.5 0.00 0.00 0.00 38 1021.8
20200803045935 21 279 8.0 14.5 0.00 0.00 0.00 39 1021.8
20200803045334 21 289 8.0 14.5 0.00 0.00 0.00 39 1021.8
20200803044715 21 235 8.0 14.5 0.00 0.00 0.00 37 1021.8
20200803044114 21 270 9.7 19.3 0.00 0.00 0.00 36 1021.2
20200803043454 22 251 12.9 19.3 0.00 0.00 0.00 34 1021.2
20200803042905 22 287 12.9 19.3 0.00 0.00 0.00 34 1020.9
20200803042308 22 288 12.9 19.3 0.00 0.00 0.00 33 1020.9
20200803041651 22 304 12.9 19.3 0.00 0.00 0.00 33 1020.9
20200803041041 22 276 12.9 19.3 0.00 0.00 0.00 32 1021.2
20200803040440 22 300 11.3 19.3 0.00 0.00 0.00 31 1021.2
20200803035850 22 304 8.0 14.5 0.00 0.00 0.00 31 1021.0
20200803035245 22 273 6.4 12.9 0.00 0.00 0.00 30 1021.0
20200803034636 23 295 8.0 16.1 0.00 0.00 0.00 29 1021.0
20200803034032 23 295 9.7 16.1 0.00 0.00 0.00 29 1021.1
20200803033442 23 296 11.3 17.7 0.00 0.00 0.00 29 1021.1
20200803032836 23 275 12.9 17.7 0.00 0.00 0.00 29 1020.8
20200803032241 23 313 11.3 17.7 0.00 0.00 0.00 29 1020.8
20200803031637 23 270 9.7 14.5 0.00 0.00 0.00 29 1020.8
20200803031026 23 281 9.7 19.3 0.00 0.00 0.00 29 1021.1
20200803030429 23 266 9.7 19.3 0.00 0.00 0.00 30 1021.1
20200803025837 23 311 9.7 19.3 0.00 0.00 0.00 30 1021.0
20200803025228 23 301 6.4 12.9 0.00 0.00 0.00 29 1021.0
20200803024622 23 323 6.4 11.3 0.00 0.00 0.00 30 1021.0
20200803024007 24 304 4.8 11.3 0.00 0.00 0.00 28 1020.3
20200803023348 24 320 4.8 14.5 0.00 0.00 0.00 28 1020.3
20200803022745 24 350 8.0 14.5 0.00 0.00 0.00 27 1020.5
20200803022141 24 312 8.0 14.5 0.00 0.00 0.00 28 1020.5
20200803021530 24 319 8.0 12.9 0.00 0.00 0.00 28 1020.5
20200803020912 24 316 8.0 11.3 0.00 0.00 0.00 28 1020.6
20200803020308 24 308 8.0 11.3 0.00 0.00 0.00 27 1020.6
20200803015709 24 275 6.4 11.3 0.00 0.00 0.00 28 1020.7
20200803015100 24 273 6.4 11.3 0.00 0.00 0.00 28 1020.7
20200803014458 24 279 6.4 11.3 0.00 0.00 0.00 28 1020.7
20200803013909 24 287 8.0 11.3 0.00 0.00 0.00 28 1020.6
20200803013254 25 263 6.4 11.3 0.00 0.00 0.00 28 1020.6
20200803012707 25 249 4.8 9.7 0.00 0.00 0.00 27 1020.6
20200803012059 25 259 3.2 6.4 0.00 0.00 0.00 28 1020.6
20200803011458 25 259 0.0 6.4 0.00 0.00 0.00 27 1020.6
20200803010910 25 30 0.0 0.0 0.00 0.00 0.00 28 1021.1
20200803010257 25 44 4.8 22.5 0.00 0.00 0.00 28 1021.1
20200803005645 25 45 9.7 35.4 0.00 0.00 0.00 28 1020.8
20200803005028 26 89 9.7 35.4 0.00 0.00 0.00 27 1020.8
20200803004413 26 24 11.3 35.4 0.00 0.00 0.00 27 1021.4
20200803003753 26 33 9.7 35.4 0.00 0.00 0.00 27 1021.4
20200803003145 25 15 9.7 19.3 0.00 0.00 0.00 29 1021.4
20200803002545 25 30 8.0 14.5 0.00 0.00 0.00 30 1021.1
20200803001944 25 25 6.4 12.9 0.00 0.00 0.00 30 1021.1
20200803001354 25 59 6.4 11.3 0.00 0.00 0.00 30 1020.9
20200803000807 25 51 4.8 11.3 0.00 0.00 0.00 31 1020.9
20200803000211 25 59 3.2 9.7 0.00 0.00 0.00 31 1020.9
20200802235618 26 49 4.8 9.7 0.00 0.00 0.00 31 1020.9
20200802235012 26 46 3.2 12.9 0.00 0.00 0.00 30 1020.9
20200802234404 26 74 3.2 12.9 0.00 0.00 0.00 31 1020.4
20200802233753 26 83 4.8 12.9 0.00 0.00 0.00 30 1020.4
20200802233144 26 59 3.2 9.7 0.00 0.00 0.00 30 1020.4
20200802232529 26 77 3.2 8.0 0.00 0.00 0.00 29 1020.2
20200802231921 27 146 1.6 8.0 0.00 0.00 0.00 27 1020.2
20200802231305 27 250 1.6 8.0 0.00 0.00 0.00 26 1019.5
20200802230711 27 249 0.0 8.0 0.00 0.00 0.00 24 1019.5
20200802230118 27 230 0.0 8.0 0.00 0.00 0.00 27 1019.5
20200802225508 27 231 1.6 8.0 0.00 0.00 0.00 27 1019.8
20200802224904 27 267 1.6 9.7 0.00 0.00 0.00 30 1019.8
20200802224306 27 259 1.6 9.7 0.00 0.00 0.00 30 1019.9
20200802223657 26 82 4.8 12.9 0.00 0.00 0.00 33 1019.9
20200802223043 26 107 3.2 17.7 0.00 0.00 0.00 32 1019.9
20200802222449 26 107 4.8 17.7 0.00 0.00 0.00 33 1020.1
20200802221831 26 60 4.8 17.7 0.00 0.00 0.00 34 1020.1
20200802221213 26 80 4.8 17.7 0.00 0.00 0.00 35 1020.5
20200802220624 26 97 3.2 8.0 0.00 0.00 0.00 35 1020.5
20200802220011 26 290 0.0 12.9 0.00 0.00 0.00 35 1020.5
20200802215357 25 235 3.2 11.3 0.00 0.00 0.00 38 1021.4
20200802214738 24 246 1.6 11.3 0.00 0.00 0.00 39 1021.4
20200802214132 24 317 0.0 1.6 0.00 0.00 0.00 39 1021.5
20200802213523 23 317 0.0 1.6 0.00 0.00 0.00 39 1021.5
20200802212915 23 317 4.8 27.4 0.00 0.00 0.00 39 1021.5
20200802212323 23 12 9.7 27.4 0.00 0.00 0.00 39 1022.1
20200802211717 24 11 11.3 27.4 0.00 0.00 0.00 39 1022.1
20200802211117 24 339 8.0 14.5 0.00 0.00 0.00 37 1021.0
20200802210516 24 275 3.2 22.5 0.00 0.00 0.00 38 1021.0
20200802205902 24 206 4.8 22.5 0.00 0.00 0.00 39 1021.0
20200802205313 24 104 8.0 22.5 0.00 0.00 0.00 39 1021.0
20200802204650 24 55 9.7 20.9 0.00 0.00 0.00 41 1021.0
20200802204043 25 46 9.7 20.9 0.00 0.00 0.00 39 1021.6
20200802203430 25 333 6.4 16.1 0.00 0.00 0.00 38 1021.6
20200802202831 25 323 3.2 11.3 0.00 0.00 0.00 34 1020.9
20200802202210 26 53 4.8 11.3 0.00 0.00 0.00 35 1020.9
20200802201610 26 77 6.4 12.9 0.00 0.00 0.00 35 1020.9
20200802200950 25 19 4.8 12.9 0.00 0.00 0.00 33 1021.0
20200802200358 26 100 3.2 12.9 0.00 0.00 0.00 34 1021.0
20200802195757 26 136 1.6 12.9 0.00 0.00 0.00 33 1021.0
20200802195144 26 190 1.6 9.7 0.00 0.00 0.00 37 1021.0
20200802194551 25 117 1.6 9.7 0.00 0.00 0.00 38 1021.0
20200802193931 25 134 1.6 9.7 0.00 0.00 0.00 39 1021.8
20200802193309 25 178 0.0 14.5 0.00 0.00 0.00 40 1021.8
20200802192714 24 157 1.6 14.5 0.00 0.00 0.00 39 1022.2
20200802192054 23 24 4.8 14.5 0.00 0.00 0.00 41 1022.2
20200802191502 23 336 3.2 14.5 0.00 0.00 0.00 41 1022.2
20200802190907 24 60 4.8 11.3 0.00 0.00 0.00 42 1021.9
20200802190310 23 41 4.8 17.7 0.00 0.00 0.00 44 1021.9
20200802185713 23 109 4.8 17.7 0.00 0.00 0.00 44 1022.0
20200802185112 23 81 8.0 17.7 0.00 0.00 0.00 43 1022.0
20200802184502 23 5 6.4 14.5 0.00 0.00 0.00 44 1022.0
20200802183846 23 89 6.4 20.9 0.00 0.00 0.00 46 1022.5
20200802183238 23 88 6.4 20.9 0.00 0.00 0.00 46 1022.5
20200802182642 23 83 8.0 20.9 0.00 0.00 0.00 47 1022.5
20200802182024 23 37 8.0 16.1 0.00 0.00 0.00 50 1022.5
20200802181416 22 350 8.0 16.1 0.00 0.00 0.00 49 1022.5
20200802180823 22 301 9.7 17.7 0.00 0.00 0.00 47 1022.9
20200802180202 22 317 6.4 17.7 0.00 0.00 0.00 46 1022.9
20200802175547 22 341 6.4 17.7 0.00 0.00 0.00 44 1022.9
20200802174953 22 306 8.0 17.7 0.00 0.00 0.00 45 1022.9
20200802174333 22 322 4.8 16.1 0.00 0.00 0.00 43 1023.3
20200802173713 22 317 6.4 16.1 0.00 0.00 0.00 46 1023.3
20200802173124 22 341 8.0 16.1 0.00 0.00 0.00 44 1023.3
20200802172536 22 311 6.4 16.1 0.00 0.00 0.00 46 1023.6
20200802171942 22 336 4.8 17.7 0.00 0.00 0.00 44 1023.6
20200802171333 22 29 8.0 17.7 0.00 0.00 0.00 44 1022.7
20200802170732 22 31 8.0 17.7 0.00 0.00 0.00 46 1022.7
20200802170126 22 346 6.4 16.1 0.00 0.00 0.00 45 1022.7
20200802165524 22 109 6.4 17.7 0.00 0.00 0.00 47 1022.7
20200802164906 22 355 8.0 17.7 0.00 0.00 0.00 47 1022.7
20200802164254 22 40 8.0 20.9 0.00 0.00 0.00 46 1023.0
20200802163635 21 321 9.7 20.9 0.00 0.00 0.00 48 1023.0
20200802163027 21 29 11.3 20.9 0.00 0.00 0.00 49 1023.0
20200802162410 21 355 9.7 17.7 0.00 0.00 0.00 48 1023.0
20200802161817 21 44 9.7 17.7 0.00 0.00 0.00 48 1023.0
20200802161208 21 344 9.7 16.1 0.00 0.00 0.00 48 1022.8
20200802160555 21 40 8.0 16.1 0.00 0.00 0.00 48 1022.8
20200802155952 21 15 6.4 17.7 0.00 0.00 0.00 47 1022.8
20200802155404 21 30 6.4 17.7 0.00 0.00 0.00 48 1023.2
20200802154755 20 67 9.7 17.7 0.00 0.00 0.00 50 1023.2
20200802154146 20 42 8.0 17.7 0.00 0.00 0.00 48 1022.8
20200802153538 20 48 8.0 14.5 0.00 0.00 0.00 46 1022.8
20200802152921 21 46 4.8 14.5 0.00 0.00 0.00 46 1022.8